Regional Weather Roundup
Issued by NWS

Home | Current Version | Previous Version | Text Only | Print | Product List | Glossary On
Versions: 1 2 3 4 5 6 7 8 9 10 11 12 13 14 15 16 17 18 19 20 21 22 23 24 25 26 27 28 29 30 31 32 33 34 35 36 37 38 39 40 41 42 43 44 45 46 47 48 49 50
000
ASUS43 KDTX 021910
RWRMI
MICHIGAN HOURLY REGIONAL WEATHER ROUNDUP
NATIONAL WEATHER SERVICE DETROIT/PONTIAC MI
200 PM EST MON MAR 02 2015

NOTE: "FAIR" INDICATES FEW OR NO CLOUDS BELOW 12,000 FEET WITH NO
SIGNIFICANT WEATHER AND/OR OBSTRUCTION TO VISIBILITY.

MIZ047>049-052>055-059>063-066>070-074>076-081>083-022000-
SOUTHEAST LOWER MICHIGAN

CITY           SKY/WX    TMP DP  RH WIND       PRES   REMARKS
ADRIAN         SUNNY     29  14  53 NW6       30.46F
ALMA           SUNNY     28  11  48 W9        30.43F
ANN ARBOR      SUNNY     29  11  47 W14       30.43F
BAD AXE        MOSUNNY   25  11  53 W10       30.41F
DETROIT CITY   SUNNY     33  11  39 W8        30.42F
DETROIT        MOSUNNY   31  12  45 W9        30.44F
FLINT          SUNNY     28  11  48 NW12      30.43F
GROSSE ILE     SUNNY     30  10  43 NW10      30.43S
HILLSDALE      MOSUNNY   28  13  53 W12       30.42F
HOWELL         SUNNY     28  11  49 W8G16     30.41F

CITY           SKY/WX    TMP DP  RH WIND       PRES   REMARKS
LAMBERTVILLE   SUNNY     30  16  55 W9        30.47F
LANSING        MOSUNNY   28  12  51 W16       30.44F
LAPEER         NOT AVBL
MASON          SUNNY     29  12  50 W9        30.43F
MT. CLEMENS    MOSUNNY   30  11  45 W12       30.40F
PONTIAC        MOSUNNY   28  11  48 W9        30.40F
PORT HOPE        N/A     26   9  48 W10       30.39F
TRI CITIES     SUNNY     28  12  51 W13       30.42F
YPSILANTI      SUNNY     33  12  41 N8G16     30.43F
$$
MIZ043>046-050>051-056>058-064>065-071>073-077>080-022000-
SOUTHWEST LOWER MICHIGAN

CITY           SKY/WX    TMP DP  RH WIND       PRES   REMARKS
BATTLE CREEK   MOSUNNY   30  13  49 W12       30.44F
BENTON HARBOR  MOSUNNY   25  16  68 W13       30.49F
BIG RAPIDS     SUNNY     29   9  42 W7        30.40S
COLDWATER      MOSUNNY   28  13  54 W9        30.45F
HOLLAND        CLOUDY    28  15  58 W8        30.48F
GRAND RAPIDS   MOSUNNY   28  14  55 SW10      30.44F
KALAMAZOO      PTSUNNY   29  14  53 NW10      30.45F
MARSHALL       PTSUNNY   29  14  52 W9G16     30.43F
MUSKEGON       MOSUNNY   27  13  55 W10       30.47F
$$
MIZ016>042-022000-
NORTHERN LOWER MICHIGAN

CITY           SKY/WX    TMP DP  RH WIND       PRES   REMARKS
ALPENA         SUNNY     27   6  41 NW14      30.37S
BEAVER ISLAND  SUNNY     22   8  56 W10       30.40F
BELLAIRE       SUNNY     24   5  43 W8        30.43S
CADILLAC       SUNNY     26   6  43 W8        30.36S
CHARLEVOIX     SUNNY     21   9  58 CALM      30.45S
GAYLORD        SUNNY     21   4  47 W10       30.34F
GRAYLING       SUNNY     25   4  41 W7        30.37F
HARBOR SPRINGS SUNNY     22  10  58 SW12      30.41R
HOUGHTON LAKE  SUNNY     24   5  44 SW8       30.37F
MANISTEE       SUNNY     25   7  46 NW7       30.46F
OSCODA         SUNNY     28   6  38 W7G20     30.38S
PELLSTON       SUNNY     22   7  52 W12       30.39F
TRAVERSE CITY  SUNNY     24   7  48 CALM      30.42S
$$
MIZ007>008-015-022000-
EASTERN UPPER MICHIGAN

CITY           SKY/WX    TMP DP  RH WIND       PRES   REMARKS
KINROSS        SUNNY     23  10  58 NW15      30.34S
NEWBERRY       SUNNY     21   5  49 W8        30.36S
S. S. MARIE    MOSUNNY   19   7  59 NW13      30.37R
$$
MIZ004>006-011>014-085-022000-
CENTRAL UPPER MICHIGAN

CITY           SKY/WX    TMP DP  RH WIND       PRES   REMARKS
MANISTIQUE     SUNNY     25   5  42 NW5       30.39S
ESCANABA       SUNNY     27   0  31 W7        30.41F
MENOMINEE      SUNNY     27   7  43 SW3       30.41F
SAWYER-GWINN   SUNNY     23  -2  33 W7        30.34S
$$
MIZ001>003-009>011-084-022000-
WESTERN UPPER MICHIGAN

CITY           SKY/WX    TMP DP  RH WIND       PRES   REMARKS
IRON MOUNTAIN  SUNNY     27   5  39 VRB3      30.33F
HOUGHTON       MOSUNNY   20   7  57 W17       30.33F
COPPER HARBOR    N/A     19   7  59 N16       30.36F
IRONWOOD       SUNNY     23   7  50 W7        30.32F
$$

ABBREVIATIONS USED IN REMARKS
   TC - TEMPERATURE IN CELSIUS
  WCI - WIND CHILL INDEX
   HX - HEAT INDEX
  VSB - VISIBILITY



USA.gov is the U.S. government's official web portal to all federal, state and local government web resources and services.